Stations météo

Publicité
Toussus Le Noble, France (7146): Température de l'air & dewpoint: 19.06.2018 06:00:00 - 25.06.2018 06:00:00 (CEST)Toussus Le Noble, France (7146): Température de l'air 5cm: 19.06.2018 06:00:00 - 25.06.2018 06:00:00 (CEST)Toussus Le Noble, France (7146): Vitesse du vent & gusts: 19.06.2018 06:00:00 - 25.06.2018 06:00:00 (CEST)Toussus Le Noble, France (7146): Direction du vent: 19.06.2018 06:00:00 - 25.06.2018 06:00:00 (CEST)Toussus Le Noble, France (7146): reduced air pressure: 19.06.2018 06:00:00 - 25.06.2018 06:00:00 (CEST)Toussus Le Noble, France (7146): visibility: 19.06.2018 06:00:00 - 25.06.2018 06:00:00 (CEST)Toussus Le Noble, France (7146): Quantités de précipitations: 19.06.2018 06:00:00 - 25.06.2018 06:00:00 (CEST)
Date & Time tt [°C] td [°C] tt 5cm [°C] ff [km/h] ff [knt] fx [km/h] fx [knt] dd ppp [hPa] vv [km] rr [mm]
25.06.2018 06:00:00 12,9 10,1 12,2 9 5 20 11 N 1023,9 19 0,0
25.06.2018 05:00:00 13,7 10,3 12,5 10 6 18 10 N 1023,8 26 0,0
25.06.2018 04:00:00 14,1 10,3 13,3 13 7 23 12 NNE 1023,8 22 0,0
25.06.2018 03:00:00 15,1 10,5 13,0 14 8 24 13 NNE 1023,8 20 0,0
25.06.2018 02:00:00 14,5 9,9 12,8 10 5 16 9 N 1024,0 20 0,0
25.06.2018 01:00:00 15,5 9,6 14,2 9 5 18 10 NNW 1023,8 21 0,0
25.06.2018 00:00:00 16,8 9,5 15,2 11 6 19 10 N 1023,4 22 0,0
24.06.2018 23:00:00 17,7 9,3 16,5 12 7 19 10 NNE 1023,1 25 0,0
24.06.2018 22:00:00 18,7 9,5 17,6 13 7 23 13 NNE 1022,6 26 0,0
24.06.2018 21:00:00 20,1 8,7 19,6 12 6 26 14 NNE 1022,3 30 0,0
24.06.2018 20:00:00 21,0 9,3 21,2 13 7 27 15 NNE 1022,2 26 0,0
24.06.2018 19:00:00 21,6 8,5 23,8 15 8 33 18 N 1022,1 22 0,0
24.06.2018 18:00:00 21,9 6,9 25,3 16 9 30 16 N 1022,2 18 0,0
24.06.2018 17:00:00 21,9 7,7 27,3 14 8 32 17 N 1022,5 17 0,0
24.06.2018 16:00:00 21,8 9,7 28,2 18 10 31 17 NNE 1022,7 14 0,0
24.06.2018 15:00:00 21,8 9,3 28,1 19 10 29 16 NNE 1023,0 13 0,0
24.06.2018 14:00:00 21,5 9,4 27,6 10 5 29 16 NNW 1023,4 13 0,0
24.06.2018 13:00:00 20,6 8,9 26,8 14 8 27 14 NNW 1023,8 11 0,0
24.06.2018 12:00:00 20,4 9,3 25,3 7 4 18 10 NNE 1023,9 27 0,0
24.06.2018 11:00:00 19,1 9,8 21,6 6 4 14 8 NNE 1024,0 24 0,0
24.06.2018 10:00:00 17,7 9,3 20,3 5 3 13 7 NE 1024,1 25 0,0
24.06.2018 09:00:00 16,4 8,9 16,3 5 3 11 6 NE 1024,1 21 0,0
24.06.2018 08:00:00 14,1 9,1 12,1 2 1 4 2 WNW 1024,1 22 0,0
24.06.2018 07:00:00 12,3 7,8 9,9 0 0 6 3 N 1024,1 22 0,0
24.06.2018 06:00:00 12,4 7,7 9,9 3 1 8 4 N 1024,1 22 0,0
24.06.2018 05:00:00 11,5 7,4 9,6 6 3 10 5 N 1024,3 21 0,0
24.06.2018 04:00:00 11,9 8,0 10,7 7 4 13 7 NW 1024,5 20 0,0
24.06.2018 03:00:00 12,8 8,9 11,4 6 4 10 5 NNW 1024,9 20 0,0
24.06.2018 02:00:00 12,5 8,2 12,0 10 5 13 7 N 1025,1 19 0,0
24.06.2018 01:00:00 13,4 8,9 12,6 11 6 14 8 N 1025,6 21 0,0
24.06.2018 00:00:00 14,4 8,8 12,0 9 5 11 6 N 1025,6 18 0,0
23.06.2018 23:00:00 15,4 9,1 13,2 6 3 9 5 N 1025,5 23 0,0
23.06.2018 22:00:00 16,9 8,1 13,5 6 3 14 8 NNE 1025,0 24 0,0
23.06.2018 21:00:00 18,5 8,5 17,3 7 4 18 10 N 1025,0 24 0,0
23.06.2018 20:00:00 19,7 8,4 20,1 10 5 24 13 NNE 1025,3 24 0,0
23.06.2018 19:00:00 20,2 8,5 21,8 16 8 29 15 NE 1025,5 23 0,0
23.06.2018 18:00:00 21,1 8,7 24,7 14 7 32 17 NNE 1025,8 34 0,0
23.06.2018 17:00:00 21,6 9,2 25,8 14 8 29 15 NNE 1026,0 37 0,0
23.06.2018 16:00:00 21,0 9,3 26,7 13 7 35 19 NNE 1026,6 34 0,0
23.06.2018 15:00:00 20,6 7,9 25,4 18 10 30 16 NNE 1027,1 36 0,0
23.06.2018 14:00:00 19,8 6,2 26,5 14 8 32 18 NE 1027,8 36 0,0
23.06.2018 13:00:00 18,9 6,0 25,0 14 8 34 19 NNE 1028,2 29 0,0
23.06.2018 12:00:00 18,1 6,0 21,5 16 9 28 15 NNE 1028,5 28 0,0
23.06.2018 11:00:00 16,1 6,5 18,6 16 9 25 14 NE 1028,9 31 0,0
23.06.2018 10:00:00 15,0 7,0 16,7 13 7 20 11 NNE 1028,9 18 0,0
23.06.2018 09:00:00 13,8 8,0 14,8 10 6 16 9 NE 1029,2 19 0,0
23.06.2018 08:00:00 12,5 7,4 11,0 7 4 14 7 NNE 1029,3 20 0,0
23.06.2018 07:00:00 9,8 6,9 7,5 9 5 10 6 N 1029,4 15 0,0
23.06.2018 06:00:00 8,6 5,5 7,2 7 4 21 11 N 1029,3 17 0,0
23.06.2018 05:00:00 10,1 5,3 8,9 10 5 15 8 N 1029,0 19 0,0
23.06.2018 04:00:00 11,3 5,0 9,2 12 7 22 12 NNE 1029,0 20 0,0
23.06.2018 03:00:00 11,6 5,2 10,0 10 5 20 11 NNE 1029,0 21 0,0
23.06.2018 02:00:00 11,7 4,7 9,4 8 4 23 12 NE 1029,2 23 0,0
23.06.2018 01:00:00 13,2 5,6 11,9 11 6 26 14 NNE 1029,3 23 0,0
23.06.2018 00:00:00 14,5 5,6 13,6 19 10 32 17 NE 1029,2 24 0,0
22.06.2018 23:00:00 15,7 5,9 14,1 17 9 31 17 NE 1029,0 24 0,0
22.06.2018 22:00:00 16,2 5,8 15,3 13 7 34 19 NE 1028,2 26 0,0
22.06.2018 21:00:00 18,2 7,0 17,4 13 7 25 14 NNE 1027,7 26 0,0
22.06.2018 20:00:00 19,5 6,9 18,9 14 8 29 16 NNE 1027,6 21 0,0
22.06.2018 19:00:00 19,4 7,2 20,5 15 8 28 15 NNE 1027,7 28 0,0
22.06.2018 18:00:00 20,8 8,4 20,7 18 10 26 14 N 1027,5 34 0,0
22.06.2018 17:00:00 19,5 7,2 21,8 16 9 31 17 NNE 1028,0 36 0,0
22.06.2018 16:00:00 20,5 8,2 22,2 17 9 35 19 N 1028,1 29 0,0
22.06.2018 15:00:00 19,1 6,6 22,1 17 9 35 19 NNE 1028,4 38 0,0
22.06.2018 14:00:00 19,4 7,8 20,2 16 9 41 22 N 1028,7 27 0,0
22.06.2018 13:00:00 18,1 7,2 21,7 14 8 31 17 N 1029,2 29 0,0
22.06.2018 12:00:00 17,4 6,9 21,2 14 8 27 15 NNE 1029,4 33 0,0
22.06.2018 11:00:00 16,4 6,2 18,3 13 7 23 13 N 1029,8 36 0,0
22.06.2018 10:00:00 14,6 5,4 16,0 10 5 20 11 NNE 1029,9 27 0,0
22.06.2018 09:00:00 13,2 5,8 13,7 13 7 18 10 NNW 1030,2 29 0,0
22.06.2018 08:00:00 11,6 6,1 10,3 8 4 11 6 NNW 1029,7 23 0,0
22.06.2018 07:00:00 8,9 6,2 5,4 6 4 8 5 NNW 1029,7 21 0,0
22.06.2018 06:00:00 7,6 4,0 5,0 3 2 6 3 NW 1029,4 25 0,0
22.06.2018 05:00:00 8,4 3,6 5,2 5 3 14 8 N 1028,9 27 0,0
22.06.2018 04:00:00 8,9 3,7 5,6 5 3 11 6 N 1028,6 27 0,0
22.06.2018 03:00:00 9,8 3,1 8,4 9 5 19 10 NE 1028,7 27 0,0
22.06.2018 02:00:00 10,6 3,6 9,6 14 8 27 14 NE 1028,7 26 0,0
22.06.2018 01:00:00 11,7 4,2 10,6 13 7 29 16 NNE 1028,6 26 0,0
22.06.2018 00:00:00 12,5 4,5 11,6 16 8 34 19 NE 1028,3 22 0,0
21.06.2018 23:00:00 13,7 4,6 13,0 21 12 42 23 NNE 1027,6 21 0,0
21.06.2018 22:00:00 15,0 4,7 14,4 23 12 39 21 NNE 1026,6 23 0,0
21.06.2018 21:00:00 16,3 5,6 16,0 21 12 39 21 NNE 1025,6 14 0,0
21.06.2018 20:00:00 18,1 6,0 17,7 20 11 35 19 N 1024,9 19 0,0
21.06.2018 19:00:00 18,8 6,6 19,0 17 9 39 21 N 1024,5 15 0,0
21.06.2018 18:00:00 19,3 7,1 22,6 21 12 37 20 N 1024,2 23 0,0
21.06.2018 17:00:00 19,7 7,7 22,9 23 13 37 20 N 1023,7 23 0,0
21.06.2018 16:00:00 20,0 8,6 25,5 22 12 39 21 N 1023,3 24 0,0
21.06.2018 15:00:00 19,8 9,4 26,6 17 9 35 19 N 1022,9 24 0,0
21.06.2018 14:00:00 19,1 10,4 22,4 20 11 32 18 N 1022,8 25 0,0
21.06.2018 13:00:00 19,2 10,7 24,0 21 11 37 20 N 1022,6 30 0,0
21.06.2018 12:00:00 19,0 12,0 19,7 20 11 32 17 N 1022,4 32 0,0
21.06.2018 11:00:00 17,4 12,7 18,6 22 12 34 18 NNW 1022,2 26 0,0
21.06.2018 10:00:00 17,0 13,9 17,1 16 9 29 16 NNW 1021,7 23 0,0
21.06.2018 09:00:00 16,3 14,5 16,5 19 10 31 17 NNW 1021,4 12 0,0
21.06.2018 08:00:00 15,9 14,6 16,2 16 9 34 18 NW 1020,9 7 0,0
21.06.2018 07:00:00 15,6 14,5 15,7 11 6 32 17 NW 1020,5 7 0,0
21.06.2018 06:00:00 15,5 14,4 14,6 19 10 32 17 NNW 1020,2 9 0,0
21.06.2018 05:00:00 14,9 13,3 14,2 11 6 16 9 NW 1020,0 16 0,0
21.06.2018 04:00:00 16,2 14,6 15,3 4 2 13 7 N 1019,9 13 0,0
21.06.2018 03:00:00 16,8 14,8 15,0 8 4 10 5 NNW 1020,3 9 0,0
21.06.2018 02:00:00 18,1 15,4 15,4 8 4 10 5 NW 1020,0 17 0,0
21.06.2018 01:00:00 18,7 15,9 15,9 5 3 16 8 N 1019,9 18 0,0
21.06.2018 00:00:00 19,5 14,9 17,8 6 3 11 6 NW 1019,7 20 0,0
20.06.2018 23:00:00 20,9 15,7 17,4 6 3 8 4 NW 1019,8 26 0,0
20.06.2018 22:00:00 21,8 16,1 20,3 8 4 10 5 N 1019,6 27 0,0
20.06.2018 21:00:00 26,0 16,5 23,6 8 4 13 7 NNW 1019,0 28 0,0
20.06.2018 20:00:00 27,4 15,1 26,0 9 5 16 9 NNW 1019,1 29 0,0
20.06.2018 19:00:00 27,6 14,9 30,5 8 5 16 9 NNW 1019,2 30 0,0
20.06.2018 18:00:00 27,4 16,1 28,7 10 5 18 10 N 1019,5 27 0,0
20.06.2018 17:00:00 26,7 15,1 28,7 9 5 21 11 NE 1020,1 36 0,0
20.06.2018 16:00:00 27,4 16,1 35,7 3 2 16 9 N 1020,3 40 0,0
20.06.2018 15:00:00 27,4 17,3 35,1 6 3 19 11 NNW 1020,6 47 0,0
20.06.2018 14:00:00 26,3 16,8 34,9 8 4 15 8 NNE 1021,1 36 0,0
20.06.2018 13:00:00 25,7 17,1 33,4 3 2 13 7 S 1021,8 36 0,0
20.06.2018 12:00:00 24,6 17,1 25,8 4 2 9 5 SSE 1022,1 38 0,0
20.06.2018 11:00:00 22,3 16,1 25,5 4 2 16 9 S 1022,5 28 0,0
20.06.2018 10:00:00 21,7 16,4 22,9 9 5 17 9 SE 1022,5 16 0,0
20.06.2018 09:00:00 20,5 16,3 21,1 11 6 17 9 SE 1022,5 16 0,0
20.06.2018 08:00:00 18,6 15,8 14,8 4 2 5 3 SSE 1022,7 12 0,0
20.06.2018 07:00:00 14,4 13,1 11,4 0 0 3 2 N 1023,1 11 0,0
20.06.2018 06:00:00 13,0 12,2 10,8 0 0 3 2 N 1023,3 0,3 0,0
20.06.2018 05:00:00 13,8 13,2 11,1 2 1 3 2 NW 1023,5 0,3 0,0
20.06.2018 04:00:00 14,1 13,0 11,6 0 0 2 1 N 1023,7 4,3 0,0
20.06.2018 03:00:00 15,1 13,8 12,3 0 0 4 2 N 1023,8 9 0,0
20.06.2018 02:00:00 16,2 14,6 13,0 4 2 5 3 N 1024,1 17 0,0
20.06.2018 01:00:00 16,8 14,6 13,7 3 2 7 4 NE 1024,2 26 0,0
20.06.2018 00:00:00 17,7 15,0 14,7 3 2 11 6 NE 1024,2 29 0,0
19.06.2018 23:00:00 18,9 15,4 16,3 9 5 15 8 NNE 1024,3 41 0,0
19.06.2018 22:00:00 20,1 15,9 18,9 10 5 15 8 N 1024,0 54 0,0
19.06.2018 21:00:00 22,8 16,8 21,8 9 5 11 6 NNW 1023,8 60 0,0
19.06.2018 20:00:00 24,7 16,4 23,5 8 5 11 6 NW 1023,9 60 0,0
19.06.2018 19:00:00 25,2 15,8 29,0 6 3 12 6 N 1024,0 54 0,0
19.06.2018 18:00:00 25,9 16,4 32,7 5 3 14 8 WSW 1024,4 56 0,0
19.06.2018 17:00:00 25,3 16,7 26,5 7 4 12 7 SW 1024,8 54 0,0
19.06.2018 16:00:00 23,4 16,4 26,4 6 3 18 10 N 1025,4 55 0,0
19.06.2018 15:00:00 22,7 15,8 26,9 7 4 15 8 NNW 1025,5 55 0,0
19.06.2018 14:00:00 21,5 16,2 24,7 7 4 11 6 W 1026,0 52 0,0
19.06.2018 13:00:00 20,4 15,2 23,2 5 3 12 7 W 1026,3 55 0,0
19.06.2018 12:00:00 19,3 15,0 21,7 6 3 11 6 WNW 1026,4 52 0,0
19.06.2018 11:00:00 18,8 15,1 20,8 7 4 14 8 NW 1026,5 39 0,0
19.06.2018 10:00:00 17,8 15,2 18,0 9 5 15 8 NNW 1026,7 46 0,0
19.06.2018 09:00:00 17,3 14,9 17,0 5 3 13 7 NW 1026,4 54 0,0
19.06.2018 08:00:00 16,6 15,0 16,8 7 4 12 6 NNW 1026,3 11 0,0
19.06.2018 07:00:00 16,6 14,8 16,7 6 3 22 12 NNW 1026,0 26 0,0
19.06.2018 06:00:00 16,6 14,6 16,5 11 6 22 12 WNW 1025,8 29 0,0

tt = Température de l'air
td = dewpoint
tt 5cm = Température de l'air 5cm
ff = Vitesse du vent
fx = gusts
dd = Direction du vent
ppp = reduced air pressure
vv = visibility
rr = Quantités de précipitations

stations d'obs. à proximité